| time (UTC) | temp F | wind direction | speed MPH | gust MPH | rain 1hr in | rain 24hr in | rain mn in | humidity % | barometer mb |
| 20260507073753 | 38 | 222 | 2.0 | 10.0 | 0.00 | 0.60 | 0.00 | 1009.0 | |
| 20260507061932 | 36 | 270 | 2.0 | 9.0 | 0.00 | 0.60 | 0.00 | 1009.9 | |
| 20260507054813 | 37 | 270 | 2.0 | 9.0 | 0.00 | 0.60 | 0.00 | 1008.7 | |
| 20260507053236 | 36 | 222 | 2.0 | 7.0 | 0.00 | 0.60 | 0.00 | 1008.8 | |
| 20260507050121 | 37 | 180 | 2.0 | 7.0 | 0.00 | 0.60 | 0.00 | 1008.8 | |
| 20260507044534 | 36 | 270 | 2.0 | 8.0 | 0.00 | 0.60 | 0.00 | 1008.8 | |
| 20260507041420 | 36 | 222 | 1.0 | 6.0 | 0.00 | 0.60 | 0.00 | 1008.9 | |
| 20260507035838 | 36 | 222 | 2.0 | 7.0 | 0.00 | 0.60 | 0.00 | 1007.9 | |
| 20260507025605 | 36 | 222 | 1.0 | 4.0 | 0.00 | 0.60 | 0.00 | 1007.9 | |
| 20260507003501 | 36 | 222 | 1.0 | 4.0 | 0.01 | 0.55 | 0.00 | 1008.0 | |
| 20260506193735 | 38 | 135 | 1.0 | 6.0 | 0.05 | 0.03 | 0.00 | 1005.3 | |
| 20260506193731 | 38 | 135 | 1.0 | 6.0 | 0.05 | 0.03 | 0.00 | 1005.3 | |
| 20260506190611 | 39 | 222 | 1.0 | 4.0 | 0.04 | 0.00 | 0.00 | 1005.1 | |
| 20260506190606 | 39 | 222 | 1.0 | 4.0 | 0.04 | 0.00 | 0.00 | 1005.1 | |
| 20260506181910 | 40 | 0 | 1.0 | 3.0 | 0.00 | 0.24 | 0.00 | 1002.7 | |
| 20260506171631 | 42 | 0 | 1.0 | 2.0 | 0.00 | 0.24 | 0.00 | 1002.2 | |
| 20260506171626 | 42 | 0 | 1.0 | 2.0 | 0.00 | 0.24 | 0.00 | 1002.2 | |
| 20260506164517 | 43 | 135 | 1.0 | 3.0 | 0.00 | 0.24 | 0.00 | 1001.3 | |
| 20260506162939 | 42 | 0 | 1.0 | 4.0 | 0.00 | 0.24 | 0.00 | 1002.0 | |
| 20260506155814 | 42 | 90 | 1.0 | 3.0 | 0.00 | 0.24 | 0.00 | 1001.8 | |
| 20260506152700 | 41 | 315 | 1.0 | 3.0 | 0.00 | 0.24 | 0.00 | 1003.5 | |
| 20260506152659 | 41 | 315 | 1.0 | 3.0 | 0.00 | 0.24 | 0.00 | 1003.5 | |
| 20260506152655 | 41 | 315 | 1.0 | 3.0 | 0.00 | 0.24 | 0.00 | 1003.5 | |
| 20260506151112 | 42 | 315 | 1.0 | 4.0 | 0.00 | 0.24 | 0.00 | 1003.3 | |
| 20260506151108 | 42 | 315 | 1.0 | 4.0 | 0.00 | 0.24 | 0.00 | 1003.3 | |
| 20260506145535 | 42 | 0 | 1.0 | 4.0 | 0.00 | 0.24 | 0.00 | 1003.1 | |
| 20260506142421 | 43 | 45 | 1.0 | 4.0 | 0.00 | 0.24 | 0.00 | 1003.0 | |
| 20260506142416 | 43 | 45 | 1.0 | 4.0 | 0.00 | 0.24 | 0.00 | 1003.0 | |
| 20260506130559 | 44 | 270 | 1.0 | 2.0 | 0.00 | 0.20 | 0.00 | 1002.6 | |
| 20260506130554 | 44 | 270 | 1.0 | 2.0 | 0.00 | 0.20 | 0.00 | 1002.6 | |
| 20260506123440 | 46 | 222 | 1.0 | 3.0 | 0.00 | 0.20 | 0.00 | 1001.9 | |
| 20260506121903 | 46 | 270 | 2.0 | 6.0 | 0.00 | 0.20 | 0.00 | 1001.5 | |
| 20260506120316 | 47 | 315 | 2.0 | 7.0 | 0.00 | 0.20 | 0.00 | 1001.2 | |
| 20260506114738 | 45 | 0 | 2.0 | 8.0 | 0.00 | 0.20 | 0.00 | 1002.6 | |
| 20260506113201 | 46 | 270 | 1.0 | 4.0 | 0.00 | 0.20 | 0.00 | 1002.6 | |
| 20260506111623 | 47 | 222 | 2.0 | 6.0 | 0.00 | 0.20 | 0.00 | 1002.6 | |
| 20260506110037 | 46 | 0 | 2.0 | 7.0 | 0.00 | 0.20 | 0.00 | 1002.7 | |
| 20260506104500 | 45 | 270 | 2.0 | 7.0 | 0.00 | 0.20 | 0.00 | 1002.8 | |
| 20260506104459 | 45 | 270 | 2.0 | 7.0 | 0.00 | 0.20 | 0.00 | 1002.8 | |
| 20260506102923 | 44 | 180 | 4.0 | 10.0 | 0.00 | 0.20 | 0.00 | 1003.1 | |
| 20260506102921 | 44 | 180 | 4.0 | 10.0 | 0.00 | 0.20 | 0.00 | 1003.1 | |
| 20260506101345 | 43 | 270 | 3.0 | 8.0 | 0.00 | 0.20 | 0.00 | 1003.5 | |
| 20260506095758 | 43 | 270 | 3.0 | 9.0 | 0.00 | 0.20 | 0.00 | 1004.3 | |
| 20260506094220 | 44 | 270 | 3.0 | 8.0 | 0.00 | 0.20 | 0.00 | 1004.3 | |
| 20260506092638 | 43 | 270 | 3.0 | 9.0 | 0.00 | 0.20 | 0.00 | 1004.8 | |
| 20260506091106 | 43 | 222 | 2.0 | 7.0 | 0.00 | 0.20 | 0.00 | 1004.7 | |
| 20260506085519 | 43 | 180 | 3.0 | 9.0 | 0.00 | 0.20 | 0.00 | 1005.1 | |
| 20260506083941 | 41 | 222 | 3.0 | 9.0 | 0.00 | 0.20 | 0.00 | 1005.1 | |
| 20260506082404 | 41 | 222 | 3.0 | 9.0 | 0.00 | 0.20 | 0.00 | 1005.2 |